Time,TemperatureF,DewpointF,PressureIn,WindDirection,WindDirectionDegrees,WindSpeedMPH,WindSpeedGustMPH,Humidity,HourlyPrecipIn,Conditions,Clouds,dailyrainin,SoftwareType,DateUTC
2013-01-22 00:00:00,22.3,15.9,30.34,NNE,19,0.0,0.0,76,0.00,,,0.00,VWS V14.01,2013-01-22 06:00:00,
2013-01-22 00:10:00,22.1,15.7,30.34,NNE,18,0.0,0.0,76,0.00,,,0.00,VWS V14.01,2013-01-22 06:10:00,
2013-01-22 00:15:00,22.1,15.7,30.34,NNE,19,0.0,0.0,76,0.00,,,0.00,VWS V14.01,2013-01-22 06:15:00,
2013-01-22 00:20:00,22.0,15.9,30.34,NNE,19,0.0,0.0,77,0.00,,,0.00,VWS V14.01,2013-01-22 06:20:00,
2013-01-22 00:25:00,21.9,15.8,30.34,NNE,19,0.0,0.0,77,0.00,,,0.00,VWS V14.01,2013-01-22 06:25:00,
2013-01-22 00:30:00,21.8,15.7,30.34,NNE,18,0.0,0.0,77,0.00,,,0.00,VWS V14.01,2013-01-22 06:30:00,
2013-01-22 00:35:00,21.7,15.6,30.34,NNE,19,0.0,0.0,77,0.00,,,0.00,VWS V14.01,2013-01-22 06:35:00,
2013-01-22 00:40:00,21.7,15.6,30.34,NNE,19,0.0,0.0,77,0.00,,,0.00,VWS V14.01,2013-01-22 06:40:00,
2013-01-22 00:45:00,21.8,15.4,30.34,NNE,19,0.0,0.0,76,0.00,,,0.00,VWS V14.01,2013-01-22 06:45:00,
2013-01-22 00:50:00,21.8,15.4,30.34,NNE,19,0.0,0.0,76,0.00,,,0.00,VWS V14.01,2013-01-22 06:50:00,
2013-01-22 00:55:00,21.8,15.4,30.34,NNE,19,0.0,0.0,76,0.00,,,0.00,VWS V14.01,2013-01-22 06:55:00,
2013-01-22 01:05:00,21.8,15.1,30.33,NNE,19,0.0,0.0,75,0.00,,,0.00,VWS V14.01,2013-01-22 07:05:00,
2013-01-22 01:15:00,21.7,15.3,30.34,NNE,19,0.0,0.0,76,0.00,,,0.00,VWS V14.01,2013-01-22 07:15:00,
2013-01-22 01:25:00,21.3,14.9,30.34,NNE,18,0.0,0.0,76,0.00,,,0.00,VWS V14.01,2013-01-22 07:25:00,
2013-01-22 01:30:00,21.2,15.1,30.34,NNE,19,0.0,0.0,77,0.00,,,0.00,VWS V14.01,2013-01-22 07:30:00,
2013-01-22 01:40:00,21.0,15.2,30.34,NNE,19,0.0,0.0,78,0.00,,,0.00,VWS V14.01,2013-01-22 07:40:00,
2013-01-22 01:45:00,20.9,15.1,30.33,East,84,0.0,0.0,78,0.00,,,0.00,VWS V14.01,2013-01-22 07:45:00,
2013-01-22 01:50:00,21.0,15.2,30.33,East,85,0.0,0.0,78,0.00,,,0.00,VWS V14.01,2013-01-22 07:50:00,
2013-01-22 01:55:00,21.0,15.2,30.33,East,85,0.0,0.0,78,0.00,,,0.00,VWS V14.01,2013-01-22 07:55:00,
2013-01-22 02:00:00,21.0,15.2,30.33,East,84,1.0,0.0,78,0.00,,,0.00,VWS V14.01,2013-01-22 08:00:00,
2013-01-22 02:05:00,20.9,14.8,30.33,East,84,0.0,0.0,77,0.00,,,0.00,VWS V14.01,2013-01-22 08:05:00,
2013-01-22 02:10:00,20.9,15.1,30.33,East,85,0.0,0.0,78,0.00,,,0.00,VWS V14.01,2013-01-22 08:10:00,
2013-01-22 02:15:00,21.0,15.2,30.33,East,85,0.0,0.0,78,0.00,,,0.00,VWS V14.01,2013-01-22 08:15:00,
2013-01-22 02:20:00,21.0,15.2,30.33,East,85,0.0,0.0,78,0.00,,,0.00,VWS V14.01,2013-01-22 08:20:00,
2013-01-22 02:25:00,20.9,15.1,30.33,East,85,0.0,0.0,78,0.00,,,0.00,VWS V14.01,2013-01-22 08:25:00,
2013-01-22 02:30:00,20.8,15.0,30.32,East,85,0.0,0.0,78,0.00,,,0.00,VWS V14.01,2013-01-22 08:30:00,
2013-01-22 02:35:00,20.8,15.0,30.32,East,84,0.0,0.0,78,0.00,,,0.00,VWS V14.01,2013-01-22 08:35:00,
2013-01-22 02:40:00,20.7,15.2,30.32,East,84,0.0,0.0,79,0.00,,,0.00,VWS V14.01,2013-01-22 08:40:00,
2013-01-22 02:45:00,20.9,15.7,30.31,East,85,0.0,0.0,80,0.00,,,0.00,VWS V14.01,2013-01-22 08:45:00,
2013-01-22 02:50:00,21.3,16.1,30.31,East,85,0.0,0.0,80,0.00,,,0.00,VWS V14.01,2013-01-22 08:50:00,
2013-01-22 02:55:00,21.6,16.1,30.31,East,85,0.0,0.0,79,0.00,,,0.00,VWS V14.01,2013-01-22 08:55:00,
2013-01-22 03:00:00,21.8,16.0,30.31,East,84,0.0,0.0,78,0.00,,,0.00,VWS V14.01,2013-01-22 09:00:00,
2013-01-22 03:05:00,21.7,15.9,30.31,East,84,0.0,0.0,78,0.00,,,0.00,VWS V14.01,2013-01-22 09:05:00,
2013-01-22 03:10:00,21.5,15.7,30.31,East,85,0.0,0.0,78,0.00,,,0.00,VWS V14.01,2013-01-22 09:10:00,
2013-01-22 03:15:00,21.3,15.5,30.32,East,85,0.0,0.0,78,0.00,,,0.00,VWS V14.01,2013-01-22 09:15:00,
2013-01-22 03:25:00,21.1,15.9,30.32,East,85,0.0,0.0,80,0.00,,,0.00,VWS V14.01,2013-01-22 09:25:00,
2013-01-22 03:30:00,20.9,15.7,30.32,East,85,0.0,0.0,80,0.00,,,0.00,VWS V14.01,2013-01-22 09:30:00,
2013-01-22 03:35:00,20.7,15.5,30.32,East,84,0.0,0.0,80,0.00,,,0.00,VWS V14.01,2013-01-22 09:35:00,
2013-01-22 03:40:00,20.6,15.4,30.32,East,85,0.0,0.0,80,0.00,,,0.00,VWS V14.01,2013-01-22 09:40:00,
2013-01-22 03:50:00,20.4,15.5,30.32,East,84,0.0,0.0,81,0.00,,,0.00,VWS V14.01,2013-01-22 09:50:00,
2013-01-22 03:55:00,20.4,15.5,30.32,East,84,0.0,0.0,81,0.00,,,0.00,VWS V14.01,2013-01-22 09:55:00,
2013-01-22 04:00:00,20.5,15.9,30.32,East,85,0.0,0.0,82,0.00,,,0.00,VWS V14.01,2013-01-22 10:00:00,
2013-01-22 04:05:00,20.5,15.9,30.32,East,85,0.0,0.0,82,0.00,,,0.00,VWS V14.01,2013-01-22 10:05:00,
2013-01-22 04:10:00,20.5,15.9,30.32,East,85,0.0,0.0,82,0.00,,,0.00,VWS V14.01,2013-01-22 10:10:00,
2013-01-22 04:15:00,20.5,15.9,30.33,East,84,1.0,0.0,82,0.00,,,0.00,VWS V14.01,2013-01-22 10:15:00,
2013-01-22 04:20:00,20.5,15.9,30.33,East,83,0.0,0.0,82,0.00,,,0.00,VWS V14.01,2013-01-22 10:20:00,
2013-01-22 04:25:00,20.6,16.3,30.33,NE,52,0.0,0.0,83,0.00,,,0.00,VWS V14.01,2013-01-22 10:25:00,
2013-01-22 04:30:00,20.8,16.2,30.33,NE,52,0.0,0.0,82,0.00,,,0.00,VWS V14.01,2013-01-22 10:30:00,
2013-01-22 04:35:00,20.8,15.9,30.33,NE,52,0.0,0.0,81,0.00,,,0.00,VWS V14.01,2013-01-22 10:35:00,
2013-01-22 04:45:00,20.8,15.9,30.31,NE,52,0.0,0.0,81,0.00,,,0.00,VWS V14.01,2013-01-22 10:45:00,
2013-01-22 04:50:00,20.8,15.9,30.31,NE,52,0.0,0.0,81,0.00,,,0.00,VWS V14.01,2013-01-22 10:50:00,
2013-01-22 05:00:00,20.5,15.6,30.32,NE,52,0.0,0.0,81,0.00,,,0.00,VWS V14.01,2013-01-22 11:00:00,
2013-01-22 05:10:00,20.2,15.3,30.32,NE,52,0.0,0.0,81,0.00,,,0.00,VWS V14.01,2013-01-22 11:10:00,
2013-01-22 05:15:00,20.0,15.4,30.33,NE,52,0.0,0.0,82,0.00,,,0.00,VWS V14.01,2013-01-22 11:15:00,
2013-01-22 05:20:00,19.8,15.2,30.33,NE,52,0.0,0.0,82,0.00,,,0.00,VWS V14.01,2013-01-22 11:20:00,
2013-01-22 05:25:00,19.7,15.1,30.33,NE,52,0.0,0.0,82,0.00,,,0.00,VWS V14.01,2013-01-22 11:25:00,
2013-01-22 05:30:00,19.8,15.2,30.33,ENE,57,0.0,0.0,82,0.00,,,0.00,VWS V14.01,2013-01-22 11:30:00,
2013-01-22 05:35:00,20.0,15.4,30.33,ENE,57,0.0,0.0,82,0.00,,,0.00,VWS V14.01,2013-01-22 11:35:00,
2013-01-22 05:40:00,20.0,15.4,30.33,ENE,57,0.0,0.0,82,0.00,,,0.00,VWS V14.01,2013-01-22 11:40:00,
2013-01-22 05:45:00,20.0,15.4,30.33,NE,56,0.0,0.0,82,0.00,,,0.00,VWS V14.01,2013-01-22 11:45:00,
2013-01-22 05:50:00,20.1,15.5,30.33,ENE,57,0.0,0.0,82,0.00,,,0.00,VWS V14.01,2013-01-22 11:50:00,
2013-01-22 05:55:00,20.1,15.8,30.33,ENE,57,0.0,0.0,83,0.00,,,0.00,VWS V14.01,2013-01-22 11:55:00,
2013-01-22 06:05:00,20.1,15.5,30.33,NE,56,0.0,0.0,82,0.00,,,0.00,VWS V14.01,2013-01-22 12:05:00,
2013-01-22 06:10:00,20.0,15.4,30.33,ENE,57,0.0,0.0,82,0.00,,,0.00,VWS V14.01,2013-01-22 12:10:00,
2013-01-22 06:15:00,20.1,15.5,30.34,ENE,57,0.0,0.0,82,0.00,,,0.00,VWS V14.01,2013-01-22 12:15:00,
2013-01-22 06:20:00,20.2,15.6,30.34,ENE,57,0.0,0.0,82,0.00,,,0.00,VWS V14.01,2013-01-22 12:20:00,
2013-01-22 06:25:00,20.4,16.1,30.34,NE,56,0.0,0.0,83,0.00,,,0.00,VWS V14.01,2013-01-22 12:25:00,
2013-01-22 06:30:00,20.6,16.3,30.34,ENE,57,0.0,0.0,83,0.00,,,0.00,VWS V14.01,2013-01-22 12:30:00,
2013-01-22 06:35:00,20.6,16.3,30.34,ENE,57,0.0,0.0,83,0.00,,,0.00,VWS V14.01,2013-01-22 12:35:00,
2013-01-22 06:40:00,20.6,16.3,30.34,NE,56,0.0,0.0,83,0.00,,,0.00,VWS V14.01,2013-01-22 12:40:00,
2013-01-22 06:45:00,20.6,16.3,30.34,ENE,57,0.0,0.0,83,0.00,,,0.00,VWS V14.01,2013-01-22 12:45:00,
2013-01-22 06:50:00,20.5,16.2,30.34,ENE,57,0.0,0.0,83,0.00,,,0.00,VWS V14.01,2013-01-22 12:50:00,
2013-01-22 06:55:00,20.6,16.3,30.34,ENE,57,0.0,0.0,83,0.00,,,0.00,VWS V14.01,2013-01-22 12:55:00,
2013-01-22 07:00:00,20.9,16.8,30.34,ENE,57,0.0,0.0,84,0.00,,,0.00,VWS V14.01,2013-01-22 13:00:00,
2013-01-22 07:10:00,21.1,16.8,30.34,ENE,57,0.0,0.0,83,0.00,,,0.00,VWS V14.01,2013-01-22 13:10:00,
2013-01-22 07:20:00,20.9,16.6,30.34,NE,56,0.0,0.0,83,0.00,,,0.00,VWS V14.01,2013-01-22 13:20:00,
2013-01-22 07:25:00,20.8,16.5,30.34,ENE,57,0.0,0.0,83,0.00,,,0.00,VWS V14.01,2013-01-22 13:25:00,
2013-01-22 07:30:00,20.7,16.4,30.35,ENE,57,0.0,0.0,83,0.00,,,0.00,VWS V14.01,2013-01-22 13:30:00,
2013-01-22 07:40:00,20.7,16.6,30.35,NE,56,0.0,0.0,84,0.00,,,0.00,VWS V14.01,2013-01-22 13:40:00,
2013-01-22 07:45:00,20.8,16.7,30.35,NE,56,0.0,0.0,84,0.00,,,0.00,VWS V14.01,2013-01-22 13:45:00,
2013-01-22 07:50:00,20.9,16.8,30.35,ENE,57,0.0,0.0,84,0.00,,,0.00,VWS V14.01,2013-01-22 13:50:00,
2013-01-22 08:00:00,21.1,17.0,30.35,NE,56,0.0,0.0,84,0.00,,,0.00,VWS V14.01,2013-01-22 14:00:00,
2013-01-22 08:05:00,21.2,17.1,30.35,ENE,57,0.0,0.0,84,0.00,,,0.00,VWS V14.01,2013-01-22 14:05:00,
2013-01-22 08:10:00,21.6,17.8,30.35,ENE,57,0.0,0.0,85,0.00,,,0.00,VWS V14.01,2013-01-22 14:10:00,
2013-01-22 08:15:00,22.2,18.4,30.35,East,84,0.0,0.0,85,0.00,,,0.00,VWS V14.01,2013-01-22 14:15:00,
2013-01-22 08:25:00,24.1,19.4,30.35,East,86,0.0,0.0,82,0.00,,,0.00,VWS V14.01,2013-01-22 14:25:00,
2013-01-22 08:30:00,25.0,20.0,30.35,East,86,0.0,0.0,81,0.00,,,0.00,VWS V14.01,2013-01-22 14:30:00,
2013-01-22 08:35:00,26.2,20.3,30.35,East,99,2.0,0.0,78,0.00,,,0.00,VWS V14.01,2013-01-22 14:35:00,
2013-01-22 08:40:00,27.2,20.3,30.35,ESE,103,2.0,0.0,75,0.00,,,0.00,VWS V14.01,2013-01-22 14:40:00,
2013-01-22 08:45:00,27.9,19.7,30.35,East,100,0.0,0.0,71,0.00,,,0.00,VWS V14.01,2013-01-22 14:45:00,
2013-01-22 08:55:00,28.9,20.0,30.35,ENE,78,2.0,0.0,69,0.00,,,0.00,VWS V14.01,2013-01-22 14:55:00,
2013-01-22 09:00:00,29.5,20.3,30.34,East,87,0.0,0.0,68,0.00,,,0.00,VWS V14.01,2013-01-22 15:00:00,
2013-01-22 09:10:00,30.4,20.4,30.34,East,101,0.0,0.0,66,0.00,,,0.00,VWS V14.01,2013-01-22 15:10:00,
2013-01-22 09:15:00,30.6,20.2,30.34,SSE,163,3.0,0.0,65,0.00,,,0.00,VWS V14.01,2013-01-22 15:15:00,
2013-01-22 09:20:00,30.5,19.8,30.34,ESE,118,0.0,0.0,64,0.00,,,0.00,VWS V14.01,2013-01-22 15:20:00,
2013-01-22 09:25:00,30.5,19.8,30.34,South,176,3.0,0.0,64,0.00,,,0.00,VWS V14.01,2013-01-22 15:25:00,
2013-01-22 09:30:00,30.6,19.9,30.34,SE,130,2.0,0.0,64,0.00,,,0.00,VWS V14.01,2013-01-22 15:30:00,
2013-01-22 09:40:00,31.5,20.4,30.34,ESE,113,0.0,0.0,63,0.00,,,0.00,VWS V14.01,2013-01-22 15:40:00,
2013-01-22 09:45:00,32.2,21.0,30.34,SSE,163,0.0,0.0,63,0.00,,,0.00,VWS V14.01,2013-01-22 15:45:00,
2013-01-22 09:50:00,32.6,20.7,30.34,South,173,4.0,0.0,61,0.00,,,0.00,VWS V14.01,2013-01-22 15:50:00,
2013-01-22 09:55:00,32.6,21.0,30.34,ESE,117,2.0,0.0,62,0.00,,,0.00,VWS V14.01,2013-01-22 15:55:00,
2013-01-22 10:00:00,33.0,21.0,30.33,ESE,119,4.0,0.0,61,0.00,,,0.00,VWS V14.01,2013-01-22 16:00:00,
2013-01-22 10:05:00,33.3,20.9,30.33,SSE,154,3.0,0.0,60,0.00,,,0.00,VWS V14.01,2013-01-22 16:05:00,
2013-01-22 10:15:00,34.1,22.1,30.33,South,184,2.0,0.0,61,0.00,,,0.00,VWS V14.01,2013-01-22 16:15:00,
2013-01-22 10:20:00,34.5,22.5,30.33,SSW,196,4.0,0.0,61,0.00,,,0.00,VWS V14.01,2013-01-22 16:20:00,
2013-01-22 10:30:00,35.6,22.7,30.32,SSE,162,4.0,0.0,59,0.00,,,0.00,VWS V14.01,2013-01-22 16:30:00,
2013-01-22 10:35:00,35.9,23.0,30.32,East,101,0.0,0.0,59,0.00,,,0.00,VWS V14.01,2013-01-22 16:35:00,
2013-01-22 10:40:00,36.4,23.0,30.32,South,184,2.0,0.0,58,0.00,,,0.00,VWS V14.01,2013-01-22 16:40:00,
2013-01-22 10:50:00,36.8,23.0,30.32,SSE,167,3.0,0.0,57,0.00,,,0.00,VWS V14.01,2013-01-22 16:50:00,
2013-01-22 10:55:00,36.6,22.8,30.32,South,178,0.0,0.0,57,0.00,,,0.00,VWS V14.01,2013-01-22 16:55:00,
2013-01-22 11:00:00,36.9,23.5,30.33,SW,219,0.0,0.0,58,0.00,,,0.00,VWS V14.01,2013-01-22 17:00:00,
2013-01-22 11:10:00,37.6,24.2,30.33,South,181,0.0,0.0,58,0.00,,,0.00,VWS V14.01,2013-01-22 17:10:00,
2013-01-22 11:15:00,37.5,23.2,30.33,South,170,0.0,0.0,56,0.00,,,0.00,VWS V14.01,2013-01-22 17:15:00,
2013-01-22 11:20:00,37.5,22.8,30.33,SSE,155,2.0,0.0,55,0.00,,,0.00,VWS V14.01,2013-01-22 17:20:00,
2013-01-22 11:30:00,37.6,23.8,30.34,South,171,0.0,0.0,57,0.00,,,0.00,VWS V14.01,2013-01-22 17:30:00,
2013-01-22 11:40:00,38.0,23.7,30.34,South,171,0.0,0.0,56,0.00,,,0.00,VWS V14.01,2013-01-22 17:40:00,
2013-01-22 11:50:00,38.5,23.3,30.34,South,170,0.0,0.0,54,0.00,,,0.00,VWS V14.01,2013-01-22 17:50:00,
2013-01-22 11:55:00,38.5,23.8,30.34,South,171,0.0,0.0,55,0.00,,,0.00,VWS V14.01,2013-01-22 17:55:00,
2013-01-22 12:00:00,38.4,23.7,30.33,South,171,0.0,0.0,55,0.00,,,0.00,VWS V14.01,2013-01-22 18:00:00,
2013-01-22 12:05:00,38.5,23.8,30.33,South,170,0.0,0.0,55,0.00,,,0.00,VWS V14.01,2013-01-22 18:05:00,
2013-01-22 12:10:00,38.7,23.9,30.33,South,169,0.0,0.0,55,0.00,,,0.00,VWS V14.01,2013-01-22 18:10:00,
2013-01-22 12:15:00,38.9,24.1,30.32,WSW,249,0.0,0.0,55,0.00,,,0.00,VWS V14.01,2013-01-22 18:15:00,
2013-01-22 12:25:00,39.7,24.4,30.32,WSW,241,0.0,0.0,54,0.00,,,0.00,VWS V14.01,2013-01-22 18:25:00,
2013-01-22 12:30:00,40.0,24.7,30.31,WSW,242,0.0,0.0,54,0.00,,,0.00,VWS V14.01,2013-01-22 18:30:00,
2013-01-22 12:35:00,40.2,24.9,30.31,WSW,242,0.0,0.0,54,0.00,,,0.00,VWS V14.01,2013-01-22 18:35:00,
2013-01-22 12:45:00,41.1,25.3,30.30,SSW,195,3.0,0.0,53,0.00,,,0.00,VWS V14.01,2013-01-22 18:45:00,
2013-01-22 12:50:00,41.2,25.4,30.30,WSW,246,0.0,0.0,53,0.00,,,0.00,VWS V14.01,2013-01-22 18:50:00,
2013-01-22 13:00:00,42.0,26.1,30.29,South,188,0.0,0.0,53,0.00,,,0.00,VWS V14.01,2013-01-22 19:00:00,
2013-01-22 13:10:00,42.5,25.2,30.29,ESE,103,0.0,0.0,50,0.00,,,0.00,VWS V14.01,2013-01-22 19:10:00,
2013-01-22 13:15:00,42.1,24.8,30.28,ESE,105,0.0,0.0,50,0.00,,,0.00,VWS V14.01,2013-01-22 19:15:00,
2013-01-22 13:25:00,43.1,26.2,30.28,South,169,2.0,0.0,51,0.00,,,0.00,VWS V14.01,2013-01-22 19:25:00,
2013-01-22 13:30:00,43.2,25.8,30.27,SSW,200,0.0,0.0,50,0.00,,,0.00,VWS V14.01,2013-01-22 19:30:00,
2013-01-22 13:40:00,43.9,27.0,30.27,West,281,0.0,0.0,51,0.00,,,0.00,VWS V14.01,2013-01-22 19:40:00,
2013-01-22 13:45:00,44.6,27.6,30.26,ESE,118,1.0,0.0,51,0.00,,,0.00,VWS V14.01,2013-01-22 19:45:00,
2013-01-22 13:50:00,44.8,26.3,30.26,ESE,119,3.0,0.0,48,0.00,,,0.00,VWS V14.01,2013-01-22 19:50:00,
2013-01-22 13:55:00,44.5,27.0,30.26,WSW,238,0.0,0.0,50,0.00,,,0.00,VWS V14.01,2013-01-22 19:55:00,
2013-01-22 14:05:00,45.0,27.5,30.26,WSW,242,2.0,0.0,50,0.00,,,0.00,VWS V14.01,2013-01-22 20:05:00,
2013-01-22 14:10:00,45.2,27.2,30.26,SSW,202,0.0,0.0,49,0.00,,,0.00,VWS V14.01,2013-01-22 20:10:00,
2013-01-22 14:15:00,45.0,27.0,30.26,South,177,2.0,0.0,49,0.00,,,0.00,VWS V14.01,2013-01-22 20:15:00,
2013-01-22 14:20:00,45.1,26.6,30.26,SW,218,0.0,0.0,48,0.00,,,0.00,VWS V14.01,2013-01-22 20:20:00,
2013-01-22 14:30:00,45.0,27.0,30.25,South,169,0.0,0.0,49,0.00,,,0.00,VWS V14.01,2013-01-22 20:30:00,
2013-01-22 14:35:00,45.0,27.0,30.25,East,80,1.0,0.0,49,0.00,,,0.00,VWS V14.01,2013-01-22 20:35:00,
2013-01-22 14:45:00,45.6,27.6,30.24,SSW,200,0.0,0.0,49,0.00,,,0.00,VWS V14.01,2013-01-22 20:45:00,
2013-01-22 14:50:00,46.0,27.4,30.24,SSW,200,0.0,0.0,48,0.00,,,0.00,VWS V14.01,2013-01-22 20:50:00,
2013-01-22 15:00:00,46.0,26.9,30.25,SSE,168,0.0,0.0,47,0.00,,,0.00,VWS V14.01,2013-01-22 21:00:00,
2013-01-22 15:05:00,46.0,26.9,30.25,South,178,0.0,0.0,47,0.00,,,0.00,VWS V14.01,2013-01-22 21:05:00,
2013-01-22 15:10:00,46.0,26.9,30.25,SW,236,2.0,0.0,47,0.00,,,0.00,VWS V14.01,2013-01-22 21:10:00,
2013-01-22 15:15:00,46.4,27.3,30.24,SW,236,0.0,0.0,47,0.00,,,0.00,VWS V14.01,2013-01-22 21:15:00,
2013-01-22 15:25:00,46.7,27.0,30.24,SSW,202,0.0,0.0,46,0.00,,,0.00,VWS V14.01,2013-01-22 21:25:00,
2013-01-22 15:30:00,46.7,27.0,30.24,SSW,208,0.0,0.0,46,0.00,,,0.00,VWS V14.01,2013-01-22 21:30:00,
2013-01-22 15:40:00,46.5,27.4,30.24,South,190,0.0,0.0,47,0.00,,,0.00,VWS V14.01,2013-01-22 21:40:00,
2013-01-22 15:45:00,46.7,27.0,30.24,SW,223,0.0,0.0,46,0.00,,,0.00,VWS V14.01,2013-01-22 21:45:00,
2013-01-22 15:50:00,46.5,27.4,30.24,SSW,199,0.0,0.0,47,0.00,,,0.00,VWS V14.01,2013-01-22 21:50:00,
2013-01-22 15:55:00,45.9,27.3,30.24,SW,232,1.0,0.0,48,0.00,,,0.00,VWS V14.01,2013-01-22 21:55:00,
2013-01-22 16:00:00,45.8,26.7,30.24,SSW,201,0.0,0.0,47,0.00,,,0.00,VWS V14.01,2013-01-22 22:00:00,
2013-01-22 16:10:00,45.9,26.8,30.24,SSW,211,0.0,0.0,47,0.00,,,0.00,VWS V14.01,2013-01-22 22:10:00,
2013-01-22 16:15:00,46.3,27.2,30.23,South,184,6.0,0.0,47,0.00,,,0.00,VWS V14.01,2013-01-22 22:15:00,
2013-01-22 16:25:00,46.2,26.6,30.23,SSW,194,0.0,0.0,46,0.00,,,0.00,VWS V14.01,2013-01-22 22:25:00,
2013-01-22 16:30:00,46.2,27.6,30.23,WSW,240,0.0,0.0,48,0.00,,,0.00,VWS V14.01,2013-01-22 22:30:00,
2013-01-22 16:35:00,46.1,27.5,30.23,SSW,192,1.0,0.0,48,0.00,,,0.00,VWS V14.01,2013-01-22 22:35:00,
2013-01-22 16:45:00,45.5,27.5,30.22,South,178,7.0,0.0,49,0.00,,,0.00,VWS V14.01,2013-01-22 22:45:00,
2013-01-22 16:50:00,45.3,27.8,30.22,South,187,0.0,0.0,50,0.00,,,0.00,VWS V14.01,2013-01-22 22:50:00,
2013-01-22 16:55:00,45.0,27.0,30.22,South,171,9.0,0.0,49,0.00,,,0.00,VWS V14.01,2013-01-22 22:55:00,
2013-01-22 17:00:00,44.7,27.2,30.22,SSW,200,0.0,0.0,50,0.00,,,0.00,VWS V14.01,2013-01-22 23:00:00,
2013-01-22 17:05:00,44.4,26.9,30.22,South,189,0.0,0.0,50,0.00,,,0.00,VWS V14.01,2013-01-22 23:05:00,
2013-01-22 17:15:00,43.8,26.9,30.23,SSW,192,0.0,0.0,51,0.00,,,0.00,VWS V14.01,2013-01-22 23:15:00,
2013-01-22 17:20:00,43.4,26.5,30.23,SSW,194,0.0,0.0,51,0.00,,,0.00,VWS V14.01,2013-01-22 23:20:00,
2013-01-22 17:25:00,43.1,26.2,30.23,SSW,194,0.0,0.0,51,0.00,,,0.00,VWS V14.01,2013-01-22 23:25:00,
2013-01-22 17:35:00,42.4,26.0,30.23,SSW,194,0.0,0.0,52,0.00,,,0.00,VWS V14.01,2013-01-22 23:35:00,
2013-01-22 17:40:00,41.8,25.9,30.23,SSW,194,0.0,0.0,53,0.00,,,0.00,VWS V14.01,2013-01-22 23:40:00,
2013-01-22 17:45:00,41.5,26.1,30.23,SSW,194,0.0,0.0,54,0.00,,,0.00,VWS V14.01,2013-01-22 23:45:00,
2013-01-22 17:50:00,41.2,25.8,30.23,SSW,194,0.0,0.0,54,0.00,,,0.00,VWS V14.01,2013-01-22 23:50:00,
2013-01-22 17:55:00,41.1,25.7,30.23,SSW,194,0.0,0.0,54,0.00,,,0.00,VWS V14.01,2013-01-22 23:55:00,
2013-01-22 18:00:00,41.0,25.6,30.24,SSW,194,0.0,0.0,54,0.00,,,0.00,VWS V14.01,2013-01-23 00:00:00,
2013-01-22 18:10:00,40.1,25.7,30.24,SSW,194,0.0,0.0,56,0.00,,,0.00,VWS V14.01,2013-01-23 00:10:00,
2013-01-22 18:15:00,39.8,25.4,30.24,SSW,194,0.0,0.0,56,0.00,,,0.00,VWS V14.01,2013-01-23 00:15:00,
2013-01-22 18:20:00,39.4,25.5,30.24,SSW,194,0.0,0.0,57,0.00,,,0.00,VWS V14.01,2013-01-23 00:20:00,
2013-01-22 18:25:00,38.9,26.6,30.24,SSW,194,0.0,0.0,61,0.00,,,0.00,VWS V14.01,2013-01-23 00:25:00,
2013-01-22 18:30:00,38.6,25.1,30.24,SSW,194,0.0,0.0,58,0.00,,,0.00,VWS V14.01,2013-01-23 00:30:00,
2013-01-22 18:40:00,37.9,24.9,30.24,SSW,194,0.0,0.0,59,0.00,,,0.00,VWS V14.01,2013-01-23 00:40:00,
2013-01-22 18:45:00,37.7,25.1,30.25,SSW,194,0.0,0.0,60,0.00,,,0.00,VWS V14.01,2013-01-23 00:45:00,
2013-01-22 18:55:00,37.3,25.1,30.25,SSW,194,0.0,0.0,61,0.00,,,0.00,VWS V14.01,2013-01-23 00:55:00,
2013-01-22 19:00:00,37.2,25.0,30.25,SSW,194,0.0,0.0,61,0.00,,,0.00,VWS V14.01,2013-01-23 01:00:00,
2013-01-22 19:05:00,37.1,24.9,30.25,SSW,194,0.0,0.0,61,0.00,,,0.00,VWS V14.01,2013-01-23 01:05:00,
2013-01-22 19:10:00,37.0,24.8,30.25,SSW,194,0.0,0.0,61,0.00,,,0.00,VWS V14.01,2013-01-23 01:10:00,
2013-01-22 19:15:00,36.9,24.7,30.25,South,191,0.0,0.0,61,0.00,,,0.00,VWS V14.01,2013-01-23 01:15:00,
2013-01-22 19:20:00,36.9,24.7,30.25,South,191,0.0,0.0,61,0.00,,,0.00,VWS V14.01,2013-01-23 01:20:00,
2013-01-22 19:30:00,37.0,24.8,30.25,South,191,0.0,0.0,61,0.00,,,0.00,VWS V14.01,2013-01-23 01:30:00,
2013-01-22 19:40:00,37.0,24.8,30.25,SSW,194,0.0,0.0,61,0.00,,,0.00,VWS V14.01,2013-01-23 01:40:00,
2013-01-22 19:45:00,37.0,24.8,30.25,SSW,192,0.0,0.0,61,0.00,,,0.00,VWS V14.01,2013-01-23 01:45:00,
2013-01-22 19:50:00,36.9,24.7,30.25,SSW,193,0.0,0.0,61,0.00,,,0.00,VWS V14.01,2013-01-23 01:50:00,
2013-01-22 19:55:00,36.6,24.8,30.25,SSW,192,0.0,0.0,62,0.00,,,0.00,VWS V14.01,2013-01-23 01:55:00,
2013-01-22 20:00:00,36.4,24.6,30.26,SSW,193,0.0,0.0,62,0.00,,,0.00,VWS V14.01,2013-01-23 02:00:00,
2013-01-22 20:05:00,36.2,24.8,30.26,SSW,193,0.0,0.0,63,0.00,,,0.00,VWS V14.01,2013-01-23 02:05:00,
2013-01-22 20:15:00,35.9,24.5,30.25,SSW,193,0.0,0.0,63,0.00,,,0.00,VWS V14.01,2013-01-23 02:15:00,
2013-01-22 20:20:00,35.6,24.3,30.25,SSW,193,0.0,0.0,63,0.00,,,0.00,VWS V14.01,2013-01-23 02:20:00,
2013-01-22 20:25:00,35.3,24.4,30.25,SSW,193,0.0,0.0,64,0.00,,,0.00,VWS V14.01,2013-01-23 02:25:00,
2013-01-22 20:35:00,34.7,24.1,30.26,SSW,192,0.0,0.0,65,0.00,,,0.00,VWS V14.01,2013-01-23 02:35:00,
2013-01-22 20:40:00,34.4,23.9,30.26,SSW,192,0.0,0.0,65,0.00,,,0.00,VWS V14.01,2013-01-23 02:40:00,
2013-01-22 20:50:00,33.8,24.0,30.25,SSW,192,0.0,0.0,67,0.00,,,0.00,VWS V14.01,2013-01-23 02:50:00,
2013-01-22 20:55:00,33.6,23.8,30.25,SSW,192,0.0,0.0,67,0.00,,,0.00,VWS V14.01,2013-01-23 02:55:00,
2013-01-22 21:05:00,33.7,24.3,30.25,SSW,193,0.0,0.0,68,0.00,,,0.00,VWS V14.01,2013-01-23 03:05:00,
2013-01-22 21:10:00,33.7,23.9,30.25,SSW,193,0.0,0.0,67,0.00,,,0.00,VWS V14.01,2013-01-23 03:10:00,
2013-01-22 21:15:00,33.5,23.7,30.26,SSW,192,0.0,0.0,67,0.00,,,0.00,VWS V14.01,2013-01-23 03:15:00,
2013-01-22 21:20:00,33.2,23.8,30.26,SSW,193,0.0,0.0,68,0.00,,,0.00,VWS V14.01,2013-01-23 03:20:00,
2013-01-22 21:25:00,32.9,23.9,30.26,SSW,193,0.0,0.0,69,0.00,,,0.00,VWS V14.01,2013-01-23 03:25:00,
2013-01-22 21:30:00,32.7,24.0,30.26,SSW,192,0.0,0.0,70,0.00,,,0.00,VWS V14.01,2013-01-23 03:30:00,
2013-01-22 21:35:00,32.8,24.1,30.26,SSW,193,0.0,0.0,70,0.00,,,0.00,VWS V14.01,2013-01-23 03:35:00,
2013-01-22 21:45:00,33.2,24.1,30.26,SSW,193,0.0,0.0,69,0.00,,,0.00,VWS V14.01,2013-01-23 03:45:00,
2013-01-22 21:50:00,33.7,24.3,30.26,SSW,193,0.0,0.0,68,0.00,,,0.00,VWS V14.01,2013-01-23 03:50:00,
2013-01-22 21:55:00,33.9,24.5,30.26,SSW,192,0.0,0.0,68,0.00,,,0.00,VWS V14.01,2013-01-23 03:55:00,
2013-01-22 22:00:00,33.8,24.0,30.26,SSW,193,0.0,0.0,67,0.00,,,0.00,VWS V14.01,2013-01-23 04:00:00,
2013-01-22 22:05:00,33.5,23.7,30.26,SSW,192,0.0,0.0,67,0.00,,,0.00,VWS V14.01,2013-01-23 04:05:00,
2013-01-22 22:15:00,32.6,23.2,30.26,SSW,193,0.0,0.0,68,0.00,,,0.00,VWS V14.01,2013-01-23 04:15:00,
2013-01-22 22:20:00,32.1,23.4,30.26,SSW,193,0.0,0.0,70,0.00,,,0.00,VWS V14.01,2013-01-23 04:20:00,
2013-01-22 22:25:00,31.7,23.0,30.26,SSW,193,0.0,0.0,70,0.00,,,0.00,VWS V14.01,2013-01-23 04:25:00,
2013-01-22 22:30:00,31.4,23.4,30.26,SSW,192,0.0,0.0,72,0.00,,,0.00,VWS V14.01,2013-01-23 04:30:00,
2013-01-22 22:40:00,31.0,23.0,30.26,SSW,193,0.0,0.0,72,0.00,,,0.00,VWS V14.01,2013-01-23 04:40:00,
2013-01-22 22:45:00,30.7,22.8,30.26,SSW,193,0.0,0.0,72,0.00,,,0.00,VWS V14.01,2013-01-23 04:45:00,
2013-01-22 22:50:00,30.4,22.8,30.26,SSW,193,0.0,0.0,73,0.00,,,0.00,VWS V14.01,2013-01-23 04:50:00,
2013-01-22 23:05:00,29.8,22.5,30.27,SSW,192,0.0,0.0,74,0.00,,,0.00,VWS V14.01,2013-01-23 05:05:00,
2013-01-22 23:10:00,29.7,22.4,30.27,SSW,193,0.0,0.0,74,0.00,,,0.00,VWS V14.01,2013-01-23 05:10:00,
2013-01-22 23:15:00,29.7,22.8,30.27,SSW,192,0.0,0.0,75,0.00,,,0.00,VWS V14.01,2013-01-23 05:15:00,
2013-01-22 23:20:00,29.7,22.8,30.27,SSW,193,0.0,0.0,75,0.00,,,0.00,VWS V14.01,2013-01-23 05:20:00,
2013-01-22 23:25:00,29.6,22.7,30.27,SSW,192,0.0,0.0,75,0.00,,,0.00,VWS V14.01,2013-01-23 05:25:00,
2013-01-22 23:30:00,29.6,22.7,30.26,SSW,193,0.0,0.0,75,0.00,,,0.00,VWS V14.01,2013-01-23 05:30:00,
2013-01-22 23:35:00,29.7,22.8,30.26,SSW,193,0.0,0.0,75,0.00,,,0.00,VWS V14.01,2013-01-23 05:35:00,
2013-01-22 23:40:00,29.5,22.6,30.26,SSW,192,0.0,0.0,75,0.00,,,0.00,VWS V14.01,2013-01-23 05:40:00,
2013-01-22 23:45:00,29.3,22.4,30.27,SSW,192,0.0,0.0,75,0.00,,,0.00,VWS V14.01,2013-01-23 05:45:00,
2013-01-22 23:55:00,28.5,21.9,30.27,SSW,193,0.0,0.0,76,0.00,,,0.00,VWS V14.01,2013-01-23 05:55:00,